Home > Weather > Caguas > Past weeks

Flag for Puerto Rico Weather for the Past 2 Weeks in Caguas, Puerto Rico

Now
84 °F

Scattered clouds.


Feels Like: 88 °F
Forecast: 72 / 86 °F
Wind: 14 mph from East

Location: Luis Munoz Marin

Current Time: Feb 10, 2016 at 1:54:52 PM

Latest Report: Feb 10, 2016 at 12:56 PM


Visibility: 10 mi

Pressure: 30.07 "Hg

Humidity: 61%

Dew point: 69 °F

Location of CaguasLocation

Historic Weather in Caguas — Graph

°F

Caguas Temperature Yesterday

Maximum temperature yesterday: 85 °F (at 11:56 AM)
Minimum temperature yesterday: 74 °F (at 4:56 AM)
Average temperature yesterday: 79 °F

High & Low Weather Summary for the Past Weeks

 TemperatureHumidityPressure
High87 °F (Feb 8, 1:56 PM)100% (Feb 7, 9:56 AM)30.15 "Hg (Feb 7, 9:56 AM)
Low68 °F (Feb 2, 11:56 PM)42% (Jan 29, 2:56 PM)29.91 "Hg (Feb 5, 3:56 AM)
Average78 °F74%30.03 "Hg
* Reported Jan 26 12:56 PM — Feb 10 12:56 PM, Caguas, Weather by CustomWeather, © 2016

Note: Actual official high and low records may vary slightly from our data, if they occured in-between our weather recording intervals... More about our weather records

Advertising

Caguas Weather History for the Previous 24 Hours

 ConditionsComfort  
Time TempWeatherWind HumidityBarometerVisibility
12:56 PM
Wed, Feb 10
84 °FScattered clouds.14 mph61%30.07 "Hg10 mi
11:56 AM85 °FScattered clouds.14 mph61%30.10 "Hg10 mi
10:56 AM84 °FScattered clouds.14 mph63%30.12 "Hg10 mi
9:56 AM82 °FScattered clouds.6 mph70%30.13 "Hg10 mi
8:56 AM79 °FScattered clouds.7 mph79%30.12 "Hg10 mi
7:56 AM77 °FScattered clouds.6 mph82%30.10 "Hg10 mi
6:56 AM76 °FPassing clouds.3 mph82%30.08 "Hg10 mi
5:56 AM75 °FPassing clouds.No wind85%30.06 "Hg10 mi
4:56 AM75 °FPassing clouds.No wind85%30.05 "Hg10 mi
3:56 AM75 °FPassing clouds.No wind85%30.05 "Hg10 mi
2:56 AM76 °FPassing clouds.No wind82%30.05 "Hg10 mi
1:56 AM77 °FPassing clouds.No wind79%30.07 "Hg10 mi
12:56 AM77 °FPassing clouds.No wind79%30.09 "Hg10 mi
11:56 PM
Tue, Feb 9
77 °FPassing clouds.5 mph82%30.09 "Hg10 mi
10:56 PM77 °FClear.5 mph82%30.10 "Hg10 mi
9:56 PM78 °FPassing clouds.5 mph79%30.11 "Hg10 mi
8:56 PM77 °FPassing clouds.5 mph85%30.09 "Hg10 mi
7:56 PM78 °FPassing clouds.6 mph82%30.08 "Hg10 mi
6:56 PM80 °FScattered clouds.5 mph76%30.06 "Hg10 mi
5:56 PM82 °FScattered clouds.12 mph70%30.04 "Hg10 mi
4:56 PM83 °FScattered clouds.13 mph72%30.03 "Hg10 mi
3:56 PM83 °FScattered clouds.13 mph68%30.02 "Hg10 mi
2:56 PM85 °FScattered clouds.8 mph59%30.02 "Hg10 mi
1:56 PM85 °FScattered clouds.16 mph61%30.03 "Hg10 mi
Weather by CustomWeather, © 2016

See weather overviewHow to use our weather pages